[[[{"header":{"parameterUnit":"kt","parameterCategory":2,"dx":1,"dy":1,"la1":30.253999710083008,"la2":30.299108505249023,"lo1":-89.0895004272461,"lo2":-89.04439544677734,"nx":28,"ny":28,"refTime":"2022-09-18T21:00:00:Z","depth":0,"parameterNumber":1,"parameterNumberName":"U-component_of_WINDS"},"data":[-4.623,-4.6307,-4.6297,-4.638,-4.6384,-4.6439,-4.6455,-4.6475,-4.6487,-4.6551,-4.6586,-4.6583,-4.6591,-4.663,-4.6667,-4.6664,-4.6682,-4.6718,-4.6709,-4.6559,-4.6537,-4.6517,-4.6499,-4.6721,-4.6721,-4.6868,-4.687,-4.6871,-4.6124,-4.6129,-4.6169,-4.6201,-4.6235,-4.6195,-4.6216,-4.6248,-4.6298,-4.6313,-4.6347,-4.6402,-4.6443,-4.6439,-4.6477,-4.6514,-4.6497,-4.6525,-4.6524,-4.6526,-4.6364,-4.6345,-4.6538,-4.6538,-4.6538,-4.6538,-4.6538,-4.6538,-4.5927,-4.5973,-4.5986,-4.6029,-4.6041,-4.6063,-4.6105,-4.6099,-4.6138,-4.6176,-4.6154,-4.621,-4.6223,-4.6263,-4.6273,-4.6317,-4.6284,-4.6311,-4.6319,-4.6327,-4.6339,-4.6134,-4.6322,-4.6321,-4.6321,-4.632,-4.632,0,-4.5781,-4.5769,-4.5805,-4.584,-4.587,-4.5895,-4.5916,-4.5942,-4.591,-4.5944,-4.5991,-4.6016,-4.6065,-4.6109,-4.6141,-4.6146,-4.6108,-4.6101,-4.6121,-4.6135,-4.6144,-4.6144,-4.5883,-4.6097,-4.6095,-4.6093,-4.6092,-4.6092,-4.5585,-4.5638,-4.5645,-4.5673,-4.5681,-4.5725,-4.575,-4.5718,-4.5745,-4.5766,-4.5808,-4.5849,-4.5882,-4.5958,-4.5951,-4.5987,-4.597,-4.6053,-4.5975,-4.5986,-4.5976,-4.5974,-4.5981,-4.6071,-4.6073,-4.6075,-4.6077,0,-4.5476,-4.5457,-4.5536,-4.5536,-4.5538,-4.5596,-4.5597,-4.564,-4.5629,-4.5688,-4.57,-4.5683,-4.5729,-4.5707,-4.5755,-4.5743,-4.584,-4.582,-4.5836,-4.5833,-4.5908,-4.5902,-4.6148,-4.618,-4.5946,-4.5948,-4.595,0,-4.5303,-4.5374,-4.5341,-4.5388,-4.5466,-4.5432,-4.551,-4.5508,-4.5518,-4.5564,-4.5516,-4.556,-4.5524,-4.5566,-4.5547,-4.5622,-4.563,-4.5626,-4.5621,-4.5633,-4.5634,-4.5649,-4.564,-4.5602,-4.5601,-4.56,-4.5599,0,-4.5138,-4.5201,-4.5277,-4.5288,-4.5296,-4.5332,-4.5337,-4.5346,-4.537,-4.5397,-4.5412,-4.5445,-4.5464,-4.5491,-4.5467,-4.5416,-4.5557,-4.5481,-4.5554,-4.5555,-4.5589,-4.5588,-4.5808,-4.5597,-4.5597,-4.5597,-4.5596,0,-4.4995,-4.5023,-4.5134,-4.5139,-4.5158,-4.5206,-4.5237,-4.5274,-4.5288,-4.5279,-4.53,-4.5265,-4.5327,-4.5253,-4.5338,-4.5278,-4.53,-4.53,-4.5305,-4.5312,-4.5232,-4.5363,-4.5572,-4.5595,-4.5315,-4.5313,-4.5311,0,-4.4814,-4.4919,-4.4891,-4.4997,-4.5043,-4.4987,-4.504,-4.5053,-4.5046,-4.5084,-4.5075,-4.5119,-4.5059,-4.507,-4.5114,-4.5108,-4.5186,-4.5096,-4.5155,-4.5158,-4.5157,-4.5348,-4.5387,-4.5528,-4.5281,-4.5284,-4.5286,0,-4.467,-4.4677,-4.4698,-4.4711,-4.4722,-4.4759,-4.482,-4.4855,-4.4883,-4.4901,-4.4953,-4.5011,-4.497,-4.4988,-4.4963,-4.5011,-4.5132,-4.4959,-4.4959,-4.4994,-4.5262,-4.5299,-4.5323,-4.5105,-4.5109,-4.5111,-4.5262,0,-4.4466,-4.4515,-4.4569,-4.4596,-4.4621,-4.4685,-4.4661,-4.469,-4.4664,-4.4655,-4.4728,-4.4732,-4.4768,-4.4787,-4.4762,-4.4877,-4.4855,-4.4809,-4.4738,-4.4863,-4.4912,-4.4932,-4.4667,-4.4665,-4.4663,-4.4661,0,0,-4.4299,-4.4369,-4.4334,-4.4392,-4.4411,-4.4351,-4.4422,-4.4433,-4.4458,-4.4473,-4.4433,-4.4517,-4.4522,-4.4614,-4.4651,-4.4664,-4.4684,-4.464,-4.4803,-4.4819,-4.4833,-4.4887,-4.4907,-4.4658,-4.4657,-4.4657,-4.4656,0,-4.422,-4.4225,-4.4294,-4.4305,-4.4319,-4.4305,-4.4321,-4.4325,-4.4322,-4.4392,-4.4343,-4.4384,-4.4451,-4.4464,-4.4479,-4.4628,-4.4589,-4.464,-4.473,-4.4785,-4.4803,-4.4819,-4.4875,-4.4895,-4.4651,-4.4652,-4.4652,0,-4.4077,-4.4079,-4.411,-4.4148,-4.4157,-4.4205,-4.4124,-4.4177,-4.4212,-4.4144,-4.4215,-4.4214,-4.4228,-4.4317,-4.4356,-4.4321,-4.4506,-4.4441,-4.4452,-4.4457,-4.4509,-4.4531,-4.4551,-4.4292,-4.4291,-4.429,0,0,-4.4012,-4.4057,-4.4049,-4.413,-4.4138,-4.4118,-4.414,-4.4117,-4.413,-4.4136,-4.4134,-4.4149,-4.4188,-4.4214,-4.4249,-4.4349,-4.4351,-4.4398,-4.4415,-4.4429,-4.4441,-4.4497,-4.4519,-4.4286,-4.4286,-4.4286,0,0,-4.3981,-4.3975,-4.3946,-4.4037,-4.4052,-4.4049,-4.41,-4.4065,-4.4093,-4.4083,-4.4045,-4.4048,-4.413,-4.4131,-4.4076,-4.4224,-4.4154,-4.4166,-4.4221,-4.4242,-4.4258,-4.4258,-4.3994,0,0,0,0,0,-4.3888,-4.3976,-4.395,-4.3961,-4.401,-4.4064,-4.407,-4.4041,-4.3992,-4.4033,-4.4026,-4.3982,-4.4094,-4.4044,-4.4056,-4.4119,-4.423,-4.424,-4.4249,-4.4343,-4.4365,-4.4384,0,0,0,0,0,0,-4.3893,-4.3907,-4.3947,-4.3949,-4.396,-4.406,-4.3972,-4.3967,-4.3987,-4.3978,-4.3984,-4.3982,-4.3958,-4.4036,-4.4047,-4.4107,-4.3991,-4.4234,-4.4242,-4.425,-4.4351,-4.4369,-4.4384,0,0,0,0,0,-4.3896,-4.3907,-4.3993,-4.3948,-4.3957,-4.3939,-4.3969,-4.3963,-4.3979,-4.3967,-4.3963,-4.3955,-4.396,-4.3968,-4.4042,-4.4103,-4.3982,-4.3987,-4.4239,-4.4246,-4.4252,-4.4359,0,0,0,0,0,0,-4.3898,-4.3903,-4.3994,-4.3996,-4.3912,-4.3933,-4.3935,-4.3961,-4.3966,-4.3963,-4.3935,-4.3928,-4.3963,-4.3968,-4.3975,-4.4103,-4.3976,-4.398,-4.3983,-4.4244,-4.425,-4.4254,0,0,0,0,0,0,-4.3896,-4.3905,-4.3995,-4.3952,-4.3948,-4.3927,-4.3929,-4.3987,-4.3967,-4.3933,-4.3927,-4.3932,-4.3954,-4.397,-4.3974,-4.4066,-4.3971,-4.3975,-4.3978,-4.398,-4.4249,-4.4253,0,0,0,0,0,0,-4.3899,-4.3907,-4.3951,-4.3948,-4.3945,-4.3962,-4.3978,-4.403,-4.393,-4.3934,-4.392,-4.3915,-4.3956,-4.396,-4.3974,-4.4065,-4.4066,-4.3971,-4.3974,-4.3976,-4.3977,0,0,0,0,0,0,0,-4.3902,-4.3861,-4.3984,-4.3946,-4.3942,-4.4012,-4.4012,-4.4012,-4.3929,-4.3925,-4.3921,-4.3917,-4.3947,-4.3951,-4.3956,-4.4063,0,0,-4.397,-4.3973,0,0,0,0,0,0,0,0,-4.3858,-4.386,-4.3984,-4.3984,-4.3984,-4.4012,-4.4012,-4.4012,-4.3928,-4.3925,-4.3922,-4.3919,-4.3948,-4.3952,-4.3955,0,0,0,0,0,0,0,0,0,0,0,0,0,0,0,-4.3984,-4.3984,0,-4.4012,-4.4012,-4.4012,-4.3928,-4.3925,-4.3922,-4.392,-4.3949,-4.3952,-4.3955,0,0,0,0,0,0,0,0,0,0,0,0,0,0,0,0,0,0,0,0,0,0,0,0,0,0,0,0,0,0,0,0,0,0,0,0,0,0,0,0,0,0,0,0,0,0,0,0,0,0,0,0,0,0,0,0,0,0,0,0,0,0,0,0,0,0,0,0,0]}],[{"header":{"parameterUnit":"kt","parameterCategory":2,"dx":1,"dy":1,"la1":30.253999710083008,"la2":30.299108505249023,"lo1":-89.0895004272461,"lo2":-89.04439544677734,"nx":28,"ny":28,"refTime":"2022-09-18T21:00:00:Z","depth":0,"parameterNumber":2,"parameterNumberName":"V-component_of_WINDS"},"data":[-6.8636,-6.8717,-6.8697,-6.8779,-6.8774,-6.8826,-6.8838,-6.8851,-6.8856,-6.8915,-6.8945,-6.8931,-6.8926,-6.8956,-6.8987,-6.8979,-6.8995,-6.9039,-6.9023,-6.8843,-6.8816,-6.8791,-6.8771,-6.9043,-6.9043,-6.9214,-6.9216,-6.9217,-6.8508,-6.8505,-6.8542,-6.8564,-6.8595,-6.854,-6.8552,-6.8582,-6.863,-6.8635,-6.8663,-6.8713,-6.8749,-6.8727,-6.8758,-6.8795,-6.877,-6.8805,-6.8803,-6.8803,-6.8609,-6.8588,-6.8824,-6.8824,-6.8824,-6.8824,-6.8824,-6.8824,-6.827,-6.8319,-6.832,-6.836,-6.8364,-6.8379,-6.8421,-6.8403,-6.8438,-6.8468,-6.8433,-6.8486,-6.8487,-6.8511,-6.8514,-6.8554,-6.8511,-6.8542,-6.855,-6.8559,-6.8573,-6.8333,-6.8557,-6.8557,-6.8556,-6.8555,-6.8555,0,-6.809,-6.8069,-6.8102,-6.813,-6.8158,-6.8176,-6.8189,-6.8215,-6.816,-6.8191,-6.8234,-6.8254,-6.8295,-6.8332,-6.8354,-6.835,-6.8294,-6.8285,-6.8307,-6.8326,-6.8341,-6.8336,-6.8022,-6.8279,-6.8277,-6.8275,-6.8273,-6.8272,-6.785,-6.7909,-6.7898,-6.7924,-6.7926,-6.7969,-6.7989,-6.7936,-6.7961,-6.7968,-6.8013,-6.8049,-6.8075,-6.8146,-6.8122,-6.8151,-6.8125,-6.8226,-6.8129,-6.8145,-6.8129,-6.8127,-6.8133,-6.8246,-6.825,-6.8252,-6.8255,0,-6.7718,-6.7681,-6.7764,-6.7747,-6.7744,-6.7808,-6.7792,-6.7837,-6.7813,-6.7872,-6.7883,-6.7844,-6.7886,-6.7845,-6.7883,-6.786,-6.7966,-6.7938,-6.7966,-6.7959,-6.8047,-6.804,-6.8335,-6.8371,-6.8087,-6.809,-6.8092,0,-6.7499,-6.7578,-6.7519,-6.7569,-6.7654,-6.7598,-6.7684,-6.7671,-6.767,-6.7716,-6.7645,-6.769,-6.7629,-6.7668,-6.7633,-6.7712,-6.7718,-6.7706,-6.7696,-6.7713,-6.7715,-6.7726,-6.7714,-6.7669,-6.7668,-6.7666,-6.7665,0,-6.7297,-6.7356,-6.7437,-6.7444,-6.7432,-6.7471,-6.7468,-6.7465,-6.7485,-6.7504,-6.7516,-6.7542,-6.7557,-6.7578,-6.7535,-6.7471,-6.7628,-6.7531,-6.7616,-6.7617,-6.7654,-6.7653,-6.7922,-6.7663,-6.7663,-6.7662,-6.7662,0,-6.7115,-6.7137,-6.7259,-6.7247,-6.7265,-6.7317,-6.7339,-6.7374,-6.7376,-6.7358,-6.7372,-6.732,-6.7383,-6.7291,-6.7377,-6.7307,-6.7325,-6.7318,-6.7323,-6.7328,-6.7226,-6.7386,-6.7645,-6.7672,-6.7331,-6.7328,-6.7325,0,-6.6895,-6.7008,-6.6961,-6.7077,-6.7123,-6.7042,-6.7099,-6.7102,-6.7082,-6.7118,-6.7095,-6.7136,-6.7058,-6.7065,-6.7113,-6.7091,-6.7183,-6.7077,-6.7131,-6.7134,-6.7136,-6.7373,-6.7423,-6.7593,-6.7289,-6.7293,-6.7296,0,-6.672,-6.6704,-6.6728,-6.6734,-6.6729,-6.6767,-6.6832,-6.686,-6.6887,-6.6896,-6.695,-6.7005,-6.6948,-6.696,-6.692,-6.6972,-6.7119,-6.6904,-6.6903,-6.6946,-6.7267,-6.7315,-6.7343,-6.7081,-6.7085,-6.7088,-6.7267,0,-6.6458,-6.6508,-6.657,-6.6585,-6.6607,-6.6676,-6.6631,-6.666,-6.662,-6.6597,-6.6674,-6.6663,-6.6691,-6.6711,-6.6671,-6.6804,-6.6775,-6.6714,-6.6621,-6.6777,-6.6835,-6.6858,-6.6539,-6.6536,-6.6533,-6.6531,0,0,-6.6257,-6.6328,-6.6273,-6.6334,-6.6349,-6.6263,-6.6341,-6.6345,-6.6356,-6.6369,-6.6316,-6.6393,-6.6386,-6.6484,-6.6529,-6.6539,-6.6559,-6.6506,-6.6703,-6.6722,-6.674,-6.6803,-6.6828,-6.6527,-6.6526,-6.6525,-6.6524,0,-6.6152,-6.6149,-6.6227,-6.6229,-6.623,-6.6202,-6.6221,-6.6206,-6.6195,-6.6268,-6.6195,-6.6236,-6.6297,-6.6301,-6.6311,-6.6493,-6.6436,-6.6504,-6.6619,-6.6679,-6.6701,-6.6721,-6.6788,-6.6812,-6.6518,-6.6518,-6.6518,0,-6.5973,-6.5963,-6.5995,-6.6024,-6.6024,-6.6072,-6.5964,-6.6019,-6.6054,-6.5955,-6.603,-6.6018,-6.6018,-6.6116,-6.6157,-6.6111,-6.6326,-6.6249,-6.6264,-6.6268,-6.6324,-6.6351,-6.6375,-6.6055,-6.6054,-6.6052,0,0,-6.5889,-6.5934,-6.5905,-6.5998,-6.6003,-6.5962,-6.5982,-6.5943,-6.5946,-6.5947,-6.593,-6.5935,-6.597,-6.5994,-6.6024,-6.6137,-6.6134,-6.6194,-6.6216,-6.6234,-6.6248,-6.6308,-6.6335,-6.6047,-6.6047,-6.6047,0,0,-6.5848,-6.5818,-6.5777,-6.5879,-6.5884,-6.5861,-6.592,-6.5868,-6.589,-6.5877,-6.5813,-6.5812,-6.5902,-6.5892,-6.5826,-6.5991,-6.59,-6.5914,-6.5994,-6.6021,-6.6042,-6.6043,-6.5714,0,0,0,0,0,-6.5717,-6.5822,-6.5785,-6.5795,-6.583,-6.5882,-6.5886,-6.5836,-6.5774,-6.5821,-6.5799,-6.5735,-6.5844,-6.5784,-6.5795,-6.5869,-6.5978,-6.599,-6.6002,-6.613,-6.6159,-6.6183,0,0,0,0,0,0,-6.5721,-6.5734,-6.5781,-6.5764,-6.5771,-6.5878,-6.5761,-6.575,-6.5767,-6.5754,-6.5742,-6.5735,-6.5693,-6.5775,-6.5785,-6.5857,-6.571,-6.5983,-6.5993,-6.6002,-6.614,-6.6163,-6.6183,0,0,0,0,0,-6.5723,-6.5733,-6.5804,-6.5762,-6.5768,-6.5727,-6.5756,-6.5746,-6.5759,-6.5724,-6.5715,-6.572,-6.5696,-6.5702,-6.5781,-6.5854,-6.5702,-6.5706,-6.599,-6.5998,-6.6005,-6.6151,0,0,0,0,0,0,-6.5725,-6.5724,-6.5804,-6.5804,-6.5718,-6.572,-6.5719,-6.5744,-6.5726,-6.5719,-6.5698,-6.5688,-6.57,-6.5703,-6.5708,-6.5856,-6.5696,-6.57,-6.5703,-6.5996,-6.6002,-6.6008,0,0,0,0,0,0,-6.5719,-6.5725,-6.5804,-6.5752,-6.5745,-6.5714,-6.5713,-6.5772,-6.5727,-6.5701,-6.5692,-6.5694,-6.5693,-6.5705,-6.5708,-6.5803,-6.5691,-6.5695,-6.5698,-6.57,-6.6001,-6.6006,0,0,0,0,0,0,-6.572,-6.5726,-6.5751,-6.5747,-6.5741,-6.5738,-6.5765,-6.5804,-6.5684,-6.5703,-6.5671,-6.5666,-6.5697,-6.5699,-6.5709,-6.5803,-6.5803,-6.5691,-6.5694,-6.5696,-6.5697,0,0,0,0,0,0,0,-6.5722,-6.5696,-6.5804,-6.5742,-6.5737,-6.5805,-6.5805,-6.5805,-6.5682,-6.5678,-6.5673,-6.5668,-6.5668,-6.5673,-6.5677,-6.5803,0,0,-6.5691,-6.5693,0,0,0,0,0,0,0,0,-6.5692,-6.5695,-6.5804,-6.5804,-6.5804,-6.5805,-6.5805,-6.5805,-6.5682,-6.5678,-6.5674,-6.567,-6.5669,-6.5673,-6.5677,0,0,0,0,0,0,0,0,0,0,0,0,0,0,0,-6.5804,-6.5804,0,-6.5805,-6.5805,-6.5805,-6.5681,-6.5678,-6.5675,-6.5671,-6.567,-6.5673,-6.5676,0,0,0,0,0,0,0,0,0,0,0,0,0,0,0,0,0,0,0,0,0,0,0,0,0,0,0,0,0,0,0,0,0,0,0,0,0,0,0,0,0,0,0,0,0,0,0,0,0,0,0,0,0,0,0,0,0,0,0,0,0,0,0,0,0,0,0,0,0]}]]]